When you browse on this site, cookies collect data to enhance your experience and personalize the content and advertising you see.
Visit our Privacy Policy to learn more. By continuing to use the site, you agree to this use of cookies and data.
  • In Schweiz
  • Länderverzeichnis
  • Für 7 Tage
  • Wassertemperatur
  • Satellitenkarten
  • Wetterkarte
  • Widgets
  • user-avatar
    Anmelden

    Stündliche Wetter Shannon

    Heute, 19 Dezember, Mittwoch

    Zeit Temperatur Niederschläge Wind Luftdruck Luftfeuchtigkeit
    00:00 +3°C° 0 mm 5 m/S 746 mmHg 88%
    01:00 +3°C° 0 mm 5 m/S 746 mmHg 88%
    02:00 +3°C° 0 mm 5 m/S 745 mmHg 87%
    03:00 +5°C° 0.1 mm 5 m/S 745 mmHg 87%
    04:00 +5°C° 0.1 mm 5 m/S 745 mmHg 86%
    05:00 +4°C° 0.1 mm 6 m/S 745 mmHg 86%
    06:00 +4°C° 0.2 mm 6 m/S 745 mmHg 86%
    07:00 +4°C° 0.2 mm 6 m/S 745 mmHg 87%
    08:00 +4°C° 0.2 mm 6 m/S 745 mmHg 87%
    09:00 +5°C° 0.3 mm 6 m/S 745 mmHg 86%
    10:00 +5°C° 0.3 mm 6 m/S 745 mmHg 85%
    11:00 +7°C° 0.3 mm 6 m/S 745 mmHg 83%
    12:00 +7°C° 0.5 mm 6 m/S 745 mmHg 83%
    13:00 +6°C° 0.5 mm 7 m/S 745 mmHg 83%
    14:00 +6°C° 0.5 mm 7 m/S 745 mmHg 83%
    15:00 +6°C° 0.4 mm 7 m/S 745 mmHg 84%
    16:00 +5°C° 0.4 mm 7 m/S 745 mmHg 85%
    17:00 +5°C° 0.4 mm 7 m/S 745 mmHg 86%
    18:00 +5°C° 0.3 mm 7 m/S 745 mmHg 86%
    19:00 +5°C° 0.3 mm 7 m/S 746 mmHg 86%
    20:00 +6°C° 0.3 mm 7 m/S 746 mmHg 86%
    21:00 +5°C° 0.1 mm 7 m/S 747 mmHg 86%
    22:00 +5°C° 0.1 mm 7 m/S 748 mmHg 87%
    23:00 +5°C° 0.1 mm 6 m/S 748 mmHg 87%

    Morgen, 20 Dezember, Donnerstag

    Zeit Temperatur Niederschläge Wind Luftdruck Luftfeuchtigkeit
    00:00 +5°C° 0.1 mm 6 m/S 749 mmHg 87%
    01:00 +5°C° 0.1 mm 6 m/S 749 mmHg 87%
    02:00 +5°C° 0.1 mm 6 m/S 750 mmHg 87%
    03:00 +5°C° 0.1 mm 6 m/S 750 mmHg 87%
    04:00 +5°C° 0.1 mm 6 m/S 750 mmHg 86%
    05:00 +5°C° 0.1 mm 6 m/S 750 mmHg 85%
    06:00 +5°C° 0.2 mm 6 m/S 750 mmHg 85%
    07:00 +5°C° 0.2 mm 6 m/S 751 mmHg 85%
    08:00 +5°C° 0.2 mm 6 m/S 751 mmHg 85%
    09:00 +7°C° 0.1 mm 6 m/S 751 mmHg 83%
    10:00 +6°C° 0.1 mm 7 m/S 751 mmHg 82%
    11:00 +6°C° 0.1 mm 7 m/S 751 mmHg 80%
    12:00 +7°C° 0.1 mm 6 m/S 751 mmHg 81%
    13:00 +7°C° 0.1 mm 6 m/S 751 mmHg 81%
    14:00 +7°C° 0.1 mm 6 m/S 751 mmHg 82%
    15:00 +7°C° 0 mm 5 m/S 750 mmHg 84%
    16:00 +6°C° 0 mm 4 m/S 750 mmHg 86%
    17:00 +6°C° 0 mm 4 m/S 750 mmHg 89%
    18:00 +5°C° 0.7 mm 3 m/S 749 mmHg 91%
    19:00 +5°C° 0.7 mm 3 m/S 748 mmHg 93%
    20:00 +5°C° 0.7 mm 3 m/S 747 mmHg 95%
    21:00 +6°C° 1.4 mm 4 m/S 746 mmHg 95%
    22:00 +7°C° 1.4 mm 5 m/S 745 mmHg 95%
    23:00 +8°C° 1.4 mm 6 m/S 744 mmHg 95%

    übermorgen, 21 Dezember, Freitag

    Zeit Temperatur Niederschläge Wind Luftdruck Luftfeuchtigkeit
    00:00 +8°C° 0.1 mm 7 m/S 744 mmHg 91%
    01:00 +7°C° 0.1 mm 9 m/S 744 mmHg 87%
    02:00 +7°C° 0.1 mm 10 m/S 744 mmHg 83%
    03:00 +7°C° 0 mm 10 m/S 745 mmHg 81%
    04:00 +7°C° 0 mm 10 m/S 745 mmHg 80%
    05:00 +6°C° 0 mm 10 m/S 746 mmHg 78%
    06:00 +6°C° 0.1 mm 9 m/S 746 mmHg 78%
    07:00 +6°C° 0.1 mm 8 m/S 747 mmHg 78%
    08:00 +6°C° 0.1 mm 8 m/S 747 mmHg 78%
    09:00 +6°C° 0 mm 8 m/S 748 mmHg 78%
    10:00 +7°C° 0 mm 8 m/S 748 mmHg 77%
    11:00 +9°C° 0 mm 7 m/S 749 mmHg 77%
    12:00 +8°C° 0.5 mm 6 m/S 749 mmHg 81%
    13:00 +8°C° 0.5 mm 5 m/S 748 mmHg 86%
    14:00 +7°C° 0.5 mm 4 m/S 748 mmHg 90%
    15:00 +7°C° 1.2 mm 4 m/S 748 mmHg 91%
    16:00 +7°C° 1.2 mm 4 m/S 748 mmHg 92%
    17:00 +7°C° 1.2 mm 5 m/S 749 mmHg 93%
    18:00 +7°C° 0.1 mm 5 m/S 750 mmHg 92%
    19:00 +6°C° 0.1 mm 5 m/S 751 mmHg 91%
    20:00 +5°C° 0.1 mm 6 m/S 752 mmHg 90%
    21:00 +5°C° 0 mm 6 m/S 753 mmHg 90%
    22:00 +6°C° 0 mm 5 m/S 753 mmHg 89%
    23:00 +6°C° 0 mm 5 m/S 754 mmHg 88%

    22 Dezember, Samstag

    Zeit Temperatur Niederschläge Wind Luftdruck Luftfeuchtigkeit
    00:00 +6°C° 0 mm 5 m/S 754 mmHg 88%
    01:00 +6°C° 0 mm 5 m/S 755 mmHg 89%
    02:00 +5°C° 0 mm 5 m/S 755 mmHg 89%
    03:00 +5°C° 0 mm 5 m/S 756 mmHg 89%
    04:00 +5°C° 0 mm 5 m/S 756 mmHg 89%
    05:00 +5°C° 0 mm 5 m/S 757 mmHg 89%
    06:00 +5°C° 0 mm 5 m/S 757 mmHg 88%
    07:00 +5°C° 0 mm 5 m/S 758 mmHg 88%
    08:00 +5°C° 0 mm 5 m/S 758 mmHg 88%
    09:00 +6°C° 0 mm 5 m/S 759 mmHg 85%
    10:00 +7°C° 0 mm 5 m/S 759 mmHg 83%
    11:00 +7°C° 0 mm 5 m/S 760 mmHg 80%
    12:00 +7°C° 0 mm 5 m/S 760 mmHg 81%
    13:00 +7°C° 0 mm 5 m/S 760 mmHg 81%
    14:00 +7°C° 0 mm 4 m/S 761 mmHg 82%
    15:00 +6°C° 0 mm 4 m/S 761 mmHg 85%
    16:00 +6°C° 0 mm 4 m/S 761 mmHg 88%
    17:00 +5°C° 0 mm 3 m/S 762 mmHg 91%
    18:00 +5°C° 0 mm 3 m/S 762 mmHg 91%
    19:00 +5°C° 0 mm 3 m/S 763 mmHg 92%
    20:00 +5°C° 0 mm 2 m/S 763 mmHg 93%
    21:00 +5°C° 0 mm 2 m/S 763 mmHg 93%
    22:00 +5°C° 0 mm 2 m/S 764 mmHg 94%
    23:00 +5°C° 0 mm 2 m/S 764 mmHg 94%

    23 Dezember, Sonntag

    Zeit Temperatur Niederschläge Wind Luftdruck Luftfeuchtigkeit
    00:00 +5°C° 0 mm 2 m/S 764 mmHg 94%
    01:00 +5°C° 0 mm 2 m/S 764 mmHg 94%
    02:00 +6°C° 0 mm 1 m/S 764 mmHg 94%
    03:00 +6°C° 0 mm 1 m/S 764 mmHg 93%
    04:00 +5°C° 0 mm 1 m/S 765 mmHg 93%
    05:00 +5°C° 0 mm 1 m/S 765 mmHg 93%
    06:00 +4°C° 0 mm 2 m/S 765 mmHg 93%
    07:00 +4°C° 0 mm 2 m/S 765 mmHg 93%
    08:00 +5°C° 0 mm 2 m/S 766 mmHg 93%
    09:00 +6°C° 0.1 mm 2 m/S 766 mmHg 92%
    10:00 +7°C° 0.1 mm 3 m/S 766 mmHg 91%
    11:00 +8°C° 0.1 mm 3 m/S 766 mmHg 89%
    12:00 +8°C° 0.5 mm 3 m/S 766 mmHg 91%
    13:00 +8°C° 0.5 mm 3 m/S 766 mmHg 92%
    14:00 +7°C° 0.5 mm 4 m/S 766 mmHg 93%
    15:00 +7°C° 0.3 mm 4 m/S 766 mmHg 93%
    16:00 +7°C° 0.3 mm 4 m/S 766 mmHg 94%
    17:00 +7°C° 0.3 mm 5 m/S 766 mmHg 95%
    18:00 +7°C° 0.2 mm 5 m/S 766 mmHg 95%
    19:00 +8°C° 0.2 mm 5 m/S 766 mmHg 95%
    20:00 +8°C° 0.2 mm 5 m/S 767 mmHg 95%
    21:00 +8°C° 0.8 mm 4 m/S 767 mmHg 95%
    22:00 +8°C° 0.8 mm 4 m/S 767 mmHg 95%
    23:00 +8°C° 0.8 mm 4 m/S 767 mmHg 96%

    24 Dezember, Montag

    Zeit Temperatur Niederschläge Wind Luftdruck Luftfeuchtigkeit
    00:00 +8°C° 0.4 mm 4 m/S 767 mmHg 96%
    01:00 +9°C° 0.4 mm 3 m/S 767 mmHg 96%
    02:00 +9°C° 0.4 mm 3 m/S 767 mmHg 97%
    03:00 +10°C° 0.2 mm 3 m/S 767 mmHg 97%
    04:00 +10°C° 0.2 mm 2 m/S 767 mmHg 97%
    05:00 +10°C° 0.2 mm 2 m/S 767 mmHg 98%
    06:00 +10°C° 0.1 mm 2 m/S 767 mmHg 97%
    07:00 +10°C° 0.1 mm 2 m/S 767 mmHg 97%
    08:00 +10°C° 0.1 mm 2 m/S 768 mmHg 97%
    09:00 +12°C° 0 mm 2 m/S 768 mmHg 96%
    10:00 +12°C° 0 mm 2 m/S 768 mmHg 95%
    11:00 +13°C° 0 mm 2 m/S 768 mmHg 94%
    12:00 +13°C° 0 mm 2 m/S 768 mmHg 94%
    13:00 +13°C° 0 mm 2 m/S 768 mmHg 94%
    14:00 +13°C° 0 mm 2 m/S 768 mmHg 94%
    15:00 +12°C° 0 mm 2 m/S 768 mmHg 95%
    16:00 +11°C° 0 mm 1 m/S 768 mmHg 95%
    17:00 +10°C° 0 mm 1 m/S 769 mmHg 96%
    18:00 +10°C° 0 mm 1 m/S 769 mmHg 95%
    19:00 +10°C° 0 mm 1 m/S 769 mmHg 95%
    20:00 +10°C° 0 mm 1 m/S 769 mmHg 95%
    21:00 +10°C° 0 mm 1 m/S 769 mmHg 95%
    22:00 +9°C° 0 mm 1 m/S 769 mmHg 95%
    23:00 +9°C° 0 mm 1 m/S 769 mmHg 95%
    Mehr zeigen